VOZ617 YSSY-KLAX

Flight info

Callsign VOZ617
Flight time N/A
Altitude 31000
Route DCT NOBAR B580 POXAK/N0497F330 B580 ELSAX DCT 15S174E 10S180E DCT CUFFY DCT 02S170W/N0491F350 05N160W 12N150W 19N140W/N0476F370 25N130W DCT FICKY GOATZ2
Aircraft B77W/H-SDE1E2E3FGHIJ2J3J4J5M1RWXY/LB1D1

Departure

Time N/A
Airport Sydney Kingsford Smith International Airport (YSSY)

Arrival

Time 2026-04-24 20:23
Airport Los Angeles International Airport (KLAX)
Time Latitude Longitude Altitude Speed Heading
2026-04-24 19:29 30.33204 -123.59381 37113 ft 549 kts 53°
2026-04-24 19:29 30.35287 -123.55740 37104 ft 549 kts 54°
2026-04-24 19:30 30.39599 -123.48189 37118 ft 550 kts 53°
2026-04-24 19:30 30.43889 -123.40662 37114 ft 548 kts 53°
2026-04-24 19:31 30.48054 -123.33346 37104 ft 551 kts 54°
2026-04-24 19:31 30.52314 -123.25844 37089 ft 550 kts 54°
2026-04-24 19:32 30.56481 -123.18494 37094 ft 549 kts 54°
2026-04-24 19:32 30.60696 -123.11045 37096 ft 550 kts 54°
2026-04-24 19:33 30.64851 -123.03689 37091 ft 550 kts 54°
2026-04-24 19:33 30.68993 -122.96342 37073 ft 550 kts 54°
2026-04-24 19:34 30.73201 -122.88863 37091 ft 548 kts 54°
2026-04-24 19:34 30.77407 -122.81374 37090 ft 550 kts 54°
2026-04-24 19:35 30.81546 -122.73990 37090 ft 550 kts 53°
2026-04-24 19:35 30.85672 -122.66617 37083 ft 550 kts 53°
2026-04-24 19:36 30.89841 -122.59152 37108 ft 550 kts 54°
2026-04-24 19:36 30.94019 -122.51656 37086 ft 549 kts 54°
2026-04-24 19:37 30.98092 -122.44335 37103 ft 549 kts 53°
2026-04-24 19:37 31.02187 -122.36963 37087 ft 551 kts 54°
2026-04-24 19:38 31.06317 -122.29510 37073 ft 549 kts 54°
2026-04-24 19:38 31.10459 -122.22024 37073 ft 549 kts 54°
2026-04-24 19:39 31.14607 -122.14511 37066 ft 549 kts 54°
2026-04-24 19:39 31.18737 -122.07015 37066 ft 548 kts 54°
2026-04-24 19:40 31.22862 -121.99516 37067 ft 550 kts 54°
2026-04-24 19:40 31.27002 -121.91975 37055 ft 547 kts 54°
2026-04-24 19:41 31.31125 -121.84450 37081 ft 549 kts 54°
2026-04-24 19:41 31.35224 -121.76954 37076 ft 549 kts 54°
2026-04-24 19:42 31.39347 -121.69400 37077 ft 548 kts 54°
2026-04-24 19:42 31.43465 -121.61839 37070 ft 548 kts 54°
2026-04-24 19:43 31.47559 -121.54311 37079 ft 547 kts 54°
2026-04-24 19:43 31.51665 -121.46742 37073 ft 549 kts 54°
2026-04-24 19:44 31.55492 -121.38965 37094 ft 551 kts 64°
2026-04-24 19:44 31.58531 -121.30711 37036 ft 552 kts 66°
2026-04-24 19:45 31.61485 -121.22409 37059 ft 552 kts 66°
2026-04-24 19:45 31.64433 -121.14010 37046 ft 552 kts 66°
2026-04-24 19:46 31.67346 -121.05637 37012 ft 552 kts 66°
2026-04-24 19:46 31.70234 -120.97286 37069 ft 552 kts 66°
2026-04-24 19:47 31.73000 -120.89252 37007 ft 552 kts 66°
2026-04-24 19:47 31.75883 -120.80847 37072 ft 554 kts 66°
2026-04-24 19:48 31.78587 -120.72937 37060 ft 553 kts 66°
2026-04-24 19:48 31.82851 -120.60422 37057 ft 553 kts 66°
2026-04-24 19:49 31.88512 -120.43728 37079 ft 553 kts 66°
2026-04-24 19:50 31.94485 -120.27413 37033 ft 548 kts 54°
2026-04-24 19:51 31.99127 -120.20600 37024 ft 541 kts 42°
2026-04-24 19:51 32.01661 -120.17406 37027 ft 539 kts 41°
2026-04-24 19:52 32.09312 -120.07774 37021 ft 540 kts 42°
2026-04-24 19:52 32.14546 -120.01160 37022 ft 538 kts 41°
2026-04-24 19:53 32.19492 -119.94898 37016 ft 541 kts 42°
2026-04-24 19:54 32.27033 -119.85319 37023 ft 539 kts 42°
2026-04-24 19:54 32.31967 -119.79040 37020 ft 540 kts 42°
2026-04-24 19:55 32.35266 -119.74834 37018 ft 540 kts 42°
2026-04-24 19:55 32.42053 -119.66164 37018 ft 539 kts 41°
2026-04-24 19:56 32.47044 -119.59776 36222 ft 538 kts 41°
2026-04-24 19:56 32.49567 -119.56547 35014 ft 547 kts 42°
2026-04-24 19:56 32.51913 -119.53538 34147 ft 547 kts 42°
2026-04-24 19:56 32.54499 -119.50217 33262 ft 546 kts 43°
2026-04-24 19:57 32.57128 -119.46838 32307 ft 546 kts 43°
2026-04-24 19:57 32.59654 -119.43590 31352 ft 546 kts 43°
2026-04-24 19:57 32.62269 -119.40222 30473 ft 544 kts 43°
2026-04-24 19:57 32.64845 -119.36900 29939 ft 534 kts 43°
2026-04-24 19:58 32.67099 -119.33991 29443 ft 526 kts 44°
2026-04-24 19:58 32.69598 -119.30763 28812 ft 519 kts 44°
2026-04-24 19:58 32.72054 -119.27589 28187 ft 513 kts 44°
2026-04-24 19:58 32.74401 -119.24554 27586 ft 506 kts 44°
2026-04-24 19:59 32.76753 -119.21509 26988 ft 500 kts 44°
2026-04-24 19:59 32.79094 -119.18477 26382 ft 494 kts 43°
2026-04-24 19:59 32.81411 -119.15474 25771 ft 488 kts 44°
2026-04-24 19:59 32.83688 -119.12519 25170 ft 482 kts 43°
2026-04-24 20:00 32.85965 -119.09562 24560 ft 476 kts 43°
2026-04-24 20:00 32.88238 -119.06609 23968 ft 474 kts 43°
2026-04-24 20:00 32.90474 -119.03704 23352 ft 473 kts 43°
2026-04-24 20:00 32.92693 -119.00816 22758 ft 471 kts 43°
2026-04-24 20:01 32.94731 -118.98163 22198 ft 470 kts 43°
2026-04-24 20:01 32.96939 -118.95285 21573 ft 469 kts 43°
2026-04-24 20:01 32.99178 -118.92364 20891 ft 467 kts 43°
2026-04-24 20:01 33.01430 -118.89424 20329 ft 464 kts 43°
2026-04-24 20:02 33.02885 -118.87524 19894 ft 462 kts 43°
2026-04-24 20:02 33.05696 -118.83846 19108 ft 453 kts 43°
2026-04-24 20:02 33.07829 -118.81053 18521 ft 447 kts 43°
2026-04-24 20:02 33.09903 -118.78336 17892 ft 441 kts 44°
2026-04-24 20:03 33.11964 -118.75635 17275 ft 434 kts 44°
2026-04-24 20:03 33.13936 -118.73048 16691 ft 427 kts 44°
2026-04-24 20:03 33.15923 -118.70440 16199 ft 418 kts 44°
2026-04-24 20:03 33.17837 -118.67923 16066 ft 399 kts 44°
2026-04-24 20:04 33.19659 -118.65485 16018 ft 391 kts 46°
2026-04-24 20:04 33.21439 -118.62983 15894 ft 390 kts 46°
2026-04-24 20:04 33.23173 -118.60537 15804 ft 390 kts 46°
2026-04-24 20:04 33.24930 -118.58060 15684 ft 388 kts 47°
2026-04-24 20:05 33.26675 -118.55601 15555 ft 387 kts 47°
2026-04-24 20:05 33.28421 -118.53142 15402 ft 385 kts 47°
2026-04-24 20:05 33.30172 -118.50675 15340 ft 385 kts 47°
2026-04-24 20:05 33.31739 -118.48198 15263 ft 385 kts 56°
2026-04-24 20:06 33.32883 -118.45485 15166 ft 387 kts 68°
2026-04-24 20:06 33.33602 -118.42526 15068 ft 386 kts 79°
2026-04-24 20:06 33.33848 -118.39456 14970 ft 384 kts 91°
2026-04-24 20:06 33.33749 -118.36475 14880 ft 384 kts 94°
2026-04-24 20:07 33.33649 -118.34475 14814 ft 382 kts 95°
2026-04-24 20:07 33.33440 -118.30493 14672 ft 381 kts 96°
2026-04-24 20:07 33.33277 -118.27469 14580 ft 381 kts 96°
2026-04-24 20:07 33.33107 -118.24362 14456 ft 379 kts 96°
2026-04-24 20:08 33.32939 -118.21357 14363 ft 378 kts 96°
2026-04-24 20:08 33.32774 -118.18398 14250 ft 377 kts 96°
2026-04-24 20:08 33.32661 -118.15265 14145 ft 376 kts 89°
2026-04-24 20:08 33.33009 -118.12132 13998 ft 378 kts 77°
2026-04-24 20:09 33.33823 -118.09295 13917 ft 375 kts 65°
2026-04-24 20:09 33.35077 -118.06645 13446 ft 378 kts 53°
2026-04-24 20:09 33.36751 -118.04275 12896 ft 376 kts 43°
2026-04-24 20:09 33.38702 -118.02331 12404 ft 367 kts 30°
2026-04-24 20:10 33.41006 -118.00957 11963 ft 354 kts 15°
2026-04-24 20:10 33.43386 -118.00379 11597 ft 340 kts
2026-04-24 20:10 33.45710 -118.00230 11218 ft 330 kts 359°
2026-04-24 20:10 33.47990 -118.00156 10829 ft 317 kts 357°
2026-04-24 20:11 33.50131 -118.00170 10459 ft 304 kts 355°
2026-04-24 20:11 33.52217 -118.00236 10144 ft 291 kts 355°
2026-04-24 20:11 33.54151 -118.00318 9952 ft 283 kts 354°
2026-04-24 20:11 33.56137 -118.00413 9511 ft 284 kts 355°
2026-04-24 20:12 33.58096 -118.00507 9112 ft 282 kts 355°
2026-04-24 20:12 33.60000 -118.00594 8759 ft 277 kts 355°
2026-04-24 20:12 33.61181 -118.00645 8551 ft 271 kts 355°
2026-04-24 20:12 33.63438 -118.00744 8213 ft 258 kts 355°
2026-04-24 20:13 33.65061 -118.00949 7976 ft 241 kts 345°
2026-04-24 20:13 33.66573 -118.01422 7823 ft 235 kts 341°
2026-04-24 20:13 33.68084 -118.01941 7726 ft 236 kts 341°
2026-04-24 20:13 33.69576 -118.02457 7627 ft 235 kts 341°
2026-04-24 20:14 33.71067 -118.02971 7520 ft 235 kts 342°
2026-04-24 20:14 33.72492 -118.03462 7415 ft 234 kts 342°
2026-04-24 20:14 33.73918 -118.03954 7310 ft 233 kts 342°
2026-04-24 20:14 33.75313 -118.04436 7211 ft 233 kts 342°
2026-04-24 20:15 33.76727 -118.04923 7103 ft 233 kts 342°
2026-04-24 20:15 33.78128 -118.05416 6995 ft 233 kts 340°
2026-04-24 20:15 33.79572 -118.06060 6811 ft 232 kts 337°
2026-04-24 20:15 33.80994 -118.06747 6517 ft 231 kts 337°
2026-04-24 20:16 33.82406 -118.07428 6242 ft 230 kts 337°
2026-04-24 20:16 33.83788 -118.08092 5981 ft 229 kts 337°
2026-04-24 20:16 33.85139 -118.08740 5731 ft 228 kts 337°
2026-04-24 20:16 33.86519 -118.09403 5477 ft 231 kts 337°
2026-04-24 20:17 33.87907 -118.10070 5224 ft 231 kts 338°
2026-04-24 20:17 33.90798 -118.10807 4811 ft 228 kts 356°
2026-04-24 20:17 33.92282 -118.10965 4713 ft 229 kts 346°
2026-04-24 20:18 33.93214 -118.11427 4639 ft 228 kts 331°
2026-04-24 20:18 33.94788 -118.12736 4482 ft 229 kts 319°
2026-04-24 20:18 33.95694 -118.14099 4352 ft 222 kts 296°
2026-04-24 20:18 33.95992 -118.15601 4199 ft 205 kts 269°
2026-04-24 20:19 33.95880 -118.17128 3995 ft 194 kts 262°
2026-04-24 20:19 33.95730 -118.18520 3719 ft 191 kts 262°
2026-04-24 20:19 33.95584 -118.19939 3368 ft 192 kts 262°
2026-04-24 20:19 33.95444 -118.21355 2956 ft 187 kts 261°
2026-04-24 20:20 33.95305 -118.22755 2465 ft 188 kts 261°
2026-04-24 20:20 33.95174 -118.24079 2296 ft 190 kts 261°
2026-04-24 20:20 33.95025 -118.25544 2083 ft 191 kts 261°
2026-04-24 20:20 33.94883 -118.26960 1882 ft 188 kts 261°
2026-04-24 20:21 33.94737 -118.28403 1672 ft 189 kts 261°
2026-04-24 20:21 33.94598 -118.29787 1456 ft 175 kts 261°
2026-04-24 20:21 33.94476 -118.31005 1275 ft 163 kts 261°
2026-04-24 20:21 33.94350 -118.32237 1092 ft 159 kts 261°
2026-04-24 20:22 33.94222 -118.33498 900 ft 157 kts 261°
2026-04-24 20:22 33.94098 -118.34700 711 ft 156 kts 261°
2026-04-24 20:22 33.93974 -118.35944 503 ft 156 kts 262°
2026-04-24 20:22 33.93856 -118.37180 315 ft 154 kts 261°
2026-04-24 20:23 33.93732 -118.38372 155 ft 152 kts 261°
2026-04-24 20:23 33.93608 -118.39535 121 ft 129 kts 264°
2026-04-24 20:23 33.93514 -118.40446 136 ft 94 kts 264°
2026-04-24 20:23 33.93451 -118.41065 140 ft 38 kts 262°
2026-04-24 20:24 33.93442 -118.41190 139 ft 11 kts 281°
2026-04-24 20:24 33.93504 -118.41246 140 ft 8 kts 351°
2026-04-24 20:24 33.93559 -118.41256 140 ft 8 kts 353°
2026-04-24 20:24 33.93614 -118.41264 141 ft 8 kts 353°
2026-04-24 20:25 33.93666 -118.41270 141 ft 8 kts 353°
2026-04-24 20:25 33.93719 -118.41275 141 ft 8 kts
2026-04-24 20:25 33.93753 -118.41234 141 ft 8 kts 83°
2026-04-24 20:25 33.93762 -118.41177 141 ft 6 kts 60°
2026-04-24 20:26 33.93795 -118.41157 141 ft 6 kts 359°
2026-04-24 20:26 33.93847 -118.41160 141 ft 9 kts 356°
2026-04-24 20:26 33.93914 -118.41170 139 ft 12 kts 353°
2026-04-24 20:26 33.93985 -118.41180 137 ft 3 kts 359°
2026-04-24 20:27 33.94003 -118.41170 137 ft 3 kts 50°
2026-04-24 20:27 33.94013 -118.41146 138 ft 3 kts 71°
2026-04-24 20:27 33.94015 -118.41126 139 ft 1 kts 83°
2026-04-24 20:27 33.94017 -118.41115 139 ft 2 kts 83°
2026-04-24 20:28 33.94020 -118.41089 139 ft 2 kts 83°
2026-04-24 20:28 33.94020 -118.41080 139 ft 0 kts 83°
2026-04-24 20:28 33.94021 -118.41076 139 ft 0 kts 83°